Date String (YYYY-MM-DD hh:mm:ss) UTC,Instrument flags,absolute air pressure of the measurement (hPa),sample flow rate (lpm),inlet stack bypass flow (lpm),air temperature of the measurement (°C),ambient temperature measured by the external sensor (°C),aerosol sample conditioner tube jacket temperature (°C),OPC LED temperature (°C),internal box temperature (°C),relative humidity of the measurement (%),span deviation,mass concentration of particles derived from Lorenz-Mie calculation of OPC scattering (μg/m³),mass concentration of particles derived from Lorenz-Mie calculation of OPC scattering (μg/m³),mass concentration of particles derived from Lorenz-Mie calculation of OPC scattering (μg/m³)
DateTimeUTC,F1_M11,P_M11,Q1_M11,Q2_M11,T1_M11,T2_M11,T3_M11,T4_M11,T5_M11,U1_M11,ZSPAN_M11,X0_M11,X2_M11,X1_M11
2023-12-23 01:00:00,SystemResetWarning,0827.9,5.00,000.00,025.7,024.8,000.0,034.1,027.2,11.1,0000.0,0014.22,0005.19,0004.63
2023-12-23 01:01:00,SystemResetWarning,0827.8,5.00,000.00,025.8,024.8,000.0,034.1,027.2,11.3,0000.0,0013.13,0005.21,0004.66
2023-12-23 01:02:00,SystemResetWarning,0827.8,5.00,000.00,025.8,024.8,000.0,034.1,027.2,11.3,0000.0,0012.06,0005.25,0004.72
2023-12-23 01:03:00,SystemResetWarning,0827.8,5.01,000.00,025.8,024.9,000.0,034.1,027.2,11.3,0000.0,0012.54,0005.36,0004.81
2023-12-23 01:04:00,SystemResetWarning,0827.8,5.01,000.00,025.8,024.9,000.0,034.1,027.2,11.3,0000.0,0012.04,0005.43,0004.90
2023-12-23 01:05:00,SystemResetWarning,0827.7,4.99,000.00,025.8,024.9,000.0,034.1,027.2,11.3,0000.0,0010.46,0005.34,0004.82
2023-12-23 01:06:00,SystemResetWarning,0827.8,4.99,000.00,025.8,024.9,000.0,034.1,027.2,11.3,0000.0,0009.70,0005.12,0004.63
2023-12-23 01:07:00,SystemResetWarning,0827.7,5.00,000.00,025.8,024.9,000.0,034.1,027.2,11.3,0000.0,0009.43,0004.91,0004.46
2023-12-23 01:08:00,SystemResetWarning,0827.7,5.00,000.00,025.8,024.9,000.0,034.1,027.2,11.3,0000.0,0009.40,0004.85,0004.39
2023-12-23 01:09:00,SystemResetWarning,0827.7,5.02,000.00,025.8,024.9,000.0,034.1,027.2,11.2,0000.0,0009.53,0004.88,0004.40
2023-12-23 01:10:00,SystemResetWarning,0827.7,5.00,000.00,025.8,024.9,000.0,034.1,027.2,11.2,0000.0,0010.22,0004.90,0004.41
2023-12-23 01:11:00,SystemResetWarning,0827.7,4.99,000.00,025.8,025.0,000.0,034.1,027.2,11.2,0000.0,0010.19,0004.91,0004.42
2023-12-23 01:12:00,SystemResetWarning,0827.7,5.00,000.00,025.8,025.0,000.0,034.1,027.3,11.3,0000.0,0010.03,0004.87,0004.42
2023-12-23 01:13:00,SystemResetWarning,0827.7,5.02,000.00,025.8,025.0,000.0,034.1,027.2,11.1,0000.0,0010.45,0004.88,0004.40
2023-12-23 01:14:00,SystemResetWarning,0827.7,4.99,000.00,025.8,025.0,000.0,034.1,027.3,11.1,0000.0,0010.46,0004.91,0004.39
2023-12-23 01:15:00,SystemResetWarning,0827.7,4.99,000.00,025.8,025.0,000.0,034.1,027.3,11.1,0000.0,0010.80,0004.97,0004.40
2023-12-23 01:16:00,SystemResetWarning,0827.6,5.00,000.00,025.8,025.0,000.0,034.1,027.3,11.2,0000.0,0010.89,0005.12,0004.54
2023-12-23 01:17:00,SystemResetWarning,0827.6,5.01,000.00,025.9,025.0,000.0,034.1,027.3,11.2,0000.0,0011.62,0005.42,0004.78
2023-12-23 01:18:00,SystemResetWarning,0827.5,5.01,000.00,025.9,025.0,000.0,034.1,027.3,11.2,0000.0,0012.08,0005.69,0005.02
2023-12-23 01:19:00,SystemResetWarning,0827.8,4.99,000.00,025.9,025.0,000.0,034.2,027.3,11.2,0000.0,0012.96,0005.82,0005.14
2023-12-23 01:20:00,SystemResetWarning,0827.8,4.99,000.00,025.9,025.0,000.0,034.2,027.3,11.2,0000.0,0012.68,0005.67,0005.02
2023-12-23 01:21:00,SystemResetWarning,0827.4,4.99,000.00,025.9,025.0,000.0,034.2,027.3,11.2,0000.0,0011.86,0005.54,0004.90
2023-12-23 01:22:00,SystemResetWarning,0827.4,5.02,000.00,025.9,025.0,000.0,034.2,027.3,11.2,0000.0,0011.86,0005.39,0004.78
2023-12-23 01:23:00,SystemResetWarning,0827.4,5.00,000.00,025.9,025.1,000.0,034.2,027.3,11.2,0000.0,0012.22,0005.39,0004.75
2023-12-23 01:24:00,SystemResetWarning,0827.4,4.99,000.00,025.9,025.1,000.0,034.2,027.3,11.2,0000.0,0013.23,0005.39,0004.74
2023-12-23 01:25:00,SystemResetWarning,0827.4,5.00,000.00,025.9,025.1,000.0,034.2,027.3,11.1,0000.0,0013.86,0005.36,0004.72
2023-12-23 01:26:00,SystemResetWarning,0827.4,5.01,000.00,025.9,025.1,000.0,034.2,027.3,11.1,0000.0,0014.04,0005.33,0004.69
2023-12-23 01:27:00,SystemResetWarning,0827.4,5.01,000.00,025.9,025.1,000.0,034.2,027.2,11.2,0000.0,0013.89,0005.27,0004.63
2023-12-23 01:28:00,SystemResetWarning,0827.4,5.00,000.00,025.9,025.1,000.0,034.2,027.2,11.2,0000.0,0014.18,0005.19,0004.57
2023-12-23 01:29:00,SystemResetWarning,0827.3,5.00,000.00,025.9,025.1,000.0,034.2,027.1,11.2,0000.0,0014.11,0005.13,0004.52
2023-12-23 01:30:00,SystemResetWarning,0827.4,5.00,000.00,025.8,025.0,000.0,034.2,027.2,11.2,0000.0,0014.21,0005.08,0004.48
2023-12-23 01:31:00,SystemResetWarning,0827.4,5.00,000.00,025.8,025.0,000.0,034.2,027.1,11.2,0000.0,0015.71,0005.18,0004.56
2023-12-23 01:32:00,SystemResetWarning,0827.3,5.00,000.00,025.8,025.0,000.0,034.2,027.1,11.3,0000.0,0015.53,0005.18,0004.56
2023-12-23 01:33:00,SystemResetWarning,0827.4,4.99,000.00,025.8,025.0,000.0,034.2,027.1,11.3,0000.0,0015.24,0005.21,0004.58
2023-12-23 01:34:00,SystemResetWarning,0827.3,5.00,000.00,025.8,025.0,000.0,034.2,027.1,11.3,0000.0,0015.39,0005.20,0004.57
2023-12-23 01:35:00,SystemResetWarning,0827.3,5.00,000.00,025.8,025.0,000.0,034.2,027.2,11.3,0000.0,0013.92,0005.17,0004.55
2023-12-23 01:36:00,SystemResetWarning,0827.3,5.01,000.00,025.8,025.0,000.0,034.2,027.2,11.3,0000.0,0012.93,0005.14,0004.55
2023-12-23 01:37:00,SystemResetWarning,0827.3,4.99,000.00,025.8,025.0,000.0,034.2,027.3,11.3,0000.0,0012.55,0005.08,0004.51
2023-12-23 01:38:00,SystemResetWarning,0827.3,5.00,000.00,025.9,025.0,000.0,034.2,027.3,11.3,0000.0,0012.27,0004.93,0004.39
2023-12-23 01:39:00,SystemResetWarning,0827.3,5.00,000.00,025.9,025.0,000.0,034.2,027.3,11.3,0000.0,0011.38,0004.75,0004.20
2023-12-23 01:40:00,SystemResetWarning,0827.3,5.01,000.00,025.9,025.0,000.0,034.2,027.3,11.3,0000.0,0011.80,0004.51,0003.99
2023-12-23 01:41:00,SystemResetWarning,0827.3,5.00,000.00,025.9,025.1,000.0,034.2,027.3,11.3,0000.0,0010.91,0004.28,0003.79
2023-12-23 01:42:00,SystemResetWarning,0827.3,5.00,000.00,025.9,025.1,000.0,034.2,027.3,11.3,0000.0,0009.37,0004.04,0003.59
2023-12-23 01:43:00,SystemResetWarning,0827.2,5.00,000.00,025.9,025.1,000.0,034.2,027.3,11.2,0000.0,0009.02,0003.84,0003.40
2023-12-23 01:44:00,SystemResetWarning,0827.3,5.01,000.00,025.9,025.1,000.0,034.2,027.4,11.2,0000.0,0008.78,0003.67,0003.24
2023-12-23 01:45:00,SystemResetWarning,0827.2,5.00,000.00,025.9,025.1,000.0,034.2,027.4,11.2,0000.0,0007.86,0003.41,0002.97
2023-12-23 01:46:00,SystemResetWarning,0827.2,5.00,000.00,026.0,025.2,000.0,034.2,027.4,11.2,0000.0,0007.33,0003.07,0002.51
2023-12-23 01:47:00,SystemResetWarning,0827.2,5.00,000.00,026.0,025.2,000.0,034.2,027.4,11.2,0000.0,0006.62,0002.57,0002.04
2023-12-23 01:48:00,SystemResetWarning,0827.2,5.00,000.00,026.0,025.2,000.0,034.2,027.4,11.2,0000.0,0005.80,0002.15,0001.68
2023-12-23 01:49:00,SystemResetWarning,0827.2,5.00,000.00,026.0,025.2,000.0,034.2,027.4,11.2,0000.0,0006.29,0002.29,0001.71
2023-12-23 01:50:00,SystemResetWarning,0827.2,5.00,000.00,026.0,025.2,000.0,034.2,027.4,11.3,0000.0,0007.21,0002.57,0001.99
2023-12-23 01:51:00,SystemResetWarning,0827.2,5.00,000.00,026.0,025.2,000.0,034.3,027.4,11.2,0000.0,0006.84,0002.82,0002.23
2023-12-23 01:52:00,SystemResetWarning,0827.2,5.00,000.00,026.0,025.2,000.0,034.3,027.4,11.2,0000.0,0006.68,0003.06,0002.44
2023-12-23 01:53:00,SystemResetWarning,0827.2,5.00,000.00,026.0,025.2,000.0,034.3,027.5,11.2,0000.0,0006.51,0003.15,0002.56
2023-12-23 01:54:00,SystemResetWarning,0827.2,5.00,000.00,026.0,025.2,000.0,034.3,027.5,11.2,0000.0,0007.81,0003.32,0002.83
2023-12-23 01:55:00,SystemResetWarning,0827.2,5.00,000.00,026.1,025.3,000.0,034.3,027.5,11.2,0000.0,0008.14,0003.40,0002.97
2023-12-23 01:56:00,SystemResetWarning,0827.1,5.00,000.00,026.1,025.3,000.0,034.3,027.5,11.1,0000.0,0008.20,0003.45,0003.07
2023-12-23 01:57:00,SystemResetWarning,0827.1,4.99,000.00,026.1,025.3,000.0,034.3,027.5,11.2,0000.0,0008.25,0003.50,0003.12
2023-12-23 01:58:00,SystemResetWarning,0827.1,5.00,000.00,026.1,025.3,000.0,034.3,027.5,11.2,0000.0,0008.32,0003.53,0003.15
2023-12-23 01:59:00,SystemResetWarning,0827.2,5.00,000.00,026.1,025.3,000.0,034.3,027.4,11.2,0000.0,0008.22,0003.55,0003.18
